Location: Mount Cross
(36.6390°N, 79.4878°W)
Time: 01:37:54
(UTC+00:00)

Vanguard 2 Rocket - Pass Details

Date: 27 March 2023
Orbit: 554 x 3314 km, 32.9° (Epoch: 08 June)

Event Time Altitude Azimuth Distance (km) Brightness Sun altitude
Rises 01:36:02 0° 259° (W) 3,634 10.9 -24.4°
Reaches altitude 10° 01:38:09 10° 257° (WSW) 2,920 10.2 -24.8°
Maximum altitude 01:45:25 72° 174° (S) 1,635 7.9 -26.1°
Enters shadow 01:49:42 43° 104° (ESE) 2,456 8.5 -26.9°
